[[{"header":{"parameterUnit":"m.s-1","parameterCategory":1,"la1":30.2992,"la2":30.254,"lo1":-89.0895,"lo2":-89.0443,"dy":0.0025,"dx":0.0025,"nx":19,"ny":19,"refTime":"2026-05-22T21:00:00:Z","depth":0,"parameterNumber":2,"parameterNumberName":"U-component_of_WINDS"},"data":[0,0,0,-0.1706,-0.1707,-0.18,-0.1801,-0.1916,-0.1917,0,0,0,0,0,0,0,0,0,0,0,-0.1671,-0.1671,-0.1705,-0.1708,-0.18,-0.1801,-0.1916,-0.1917,0,0,0,0,0,0,0,0,0,0,0,-0.1671,-0.1671,-0.1672,-0.1708,-0.18,-0.1801,-0.1915,-0.1848,0,0,0,0,0,0,0,0,0,0,-0.1759,-0.1718,-0.1671,-0.1672,-0.1708,-0.18,-0.1801,-0.1845,-0.1852,-0.187,0,-0.188,0,-0.19,-0.1924,-0.1924,0,0,0,-0.1714,-0.1712,-0.1743,-0.1672,-0.1709,-0.18,-0.176,-0.1849,-0.1857,-0.188,-0.1882,-0.1887,-0.1902,-0.1924,-0.1925,-0.1998,-0.1998,0,0,-0.1709,-0.1685,-0.1737,-0.1748,-0.1728,-0.1757,-0.1763,-0.1854,-0.1857,-0.1883,-0.189,-0.1904,-0.1925,-0.1926,-0.1998,-0.1998,0,0,0,-0.169,-0.1681,-0.171,-0.1743,-0.176,-0.176,-0.1767,-0.1853,-0.1864,-0.1891,-0.1905,-0.1926,-0.1927,-0.1998,-0.1998,-0.1974,0,0,0,-0.1687,-0.167,-0.1707,-0.1694,-0.1758,-0.1806,-0.1763,-0.1858,-0.1869,-0.1905,-0.1926,-0.1928,-0.1998,-0.1998,-0.1974,-0.1967,0,0,0,-0.1668,-0.1668,-0.1678,-0.1692,-0.1731,-0.1806,-0.1822,-0.1861,-0.1877,-0.1924,-0.1928,-0.1998,-0.1998,-0.1975,-0.1968,-0.1979,0,0,0,-0.1641,-0.1658,-0.1677,-0.1702,-0.173,-0.1788,-0.1822,-0.1868,-0.1906,-0.1926,-0.1998,-0.1998,-0.1975,-0.1969,-0.1979,-0.1983,-0.1982,0,0,-0.1649,-0.1658,-0.1675,-0.1695,-0.1743,-0.1776,-0.1824,-0.1883,-0.1912,-0.1969,-0.1971,-0.1974,-0.1968,-0.1979,-0.1986,-0.1985,0,0,0,-0.1669,-0.1681,-0.1699,-0.1731,-0.1774,-0.1812,-0.1866,-0.1888,-0.1937,-0.1935,-0.1982,-0.1979,-0.1987,-0.199,-0.1989,-0.1997,-0.1998,-0.1998,-0.1998,-0.1647,-0.168,-0.171,-0.1754,-0.1786,-0.184,-0.187,-0.1911,-0.1938,-0.1948,-0.1965,-0.1965,-0.1967,-0.1967,-0.1975,-0.197,-0.197,-0.197,-0.197,-0.1662,-0.1684,-0.1716,-0.1757,-0.1793,-0.183,-0.1885,-0.1903,-0.1944,-0.1955,-0.1963,-0.1971,-0.1964,-0.1974,-0.1969,-0.1969,-0.1969,-0.1969,-0.1969,-0.1651,-0.1667,-0.1691,-0.1741,-0.1777,-0.1824,-0.1861,-0.1894,-0.1926,-0.1934,-0.1956,-0.1957,-0.1962,-0.1942,-0.1942,-0.1942,-0.1942,-0.1942,-0.1942,-0.163,-0.1658,-0.1683,-0.1729,-0.1754,-0.1792,-0.1849,-0.1876,-0.1916,-0.1937,-0.1938,-0.1964,-0.1957,-0.1954,-0.1942,-0.1942,-0.1942,-0.1942,-0.1942,-0.1633,-0.1637,-0.1675,-0.17,-0.1758,-0.1792,-0.1834,-0.1887,-0.1915,-0.1933,-0.1958,-0.1947,-0.196,-0.1961,-0.1959,-0.1949,-0.1949,-0.1949,-0.1949,-0.1623,-0.1632,-0.1678,-0.1716,-0.1757,-0.1798,-0.1845,-0.189,-0.1938,-0.1958,-0.1965,-0.1966,-0.1965,-0.1979,-0.1979,-0.1978,-0.1973,-0.1973,-0.1974,-0.1627,-0.1641,-0.1672,-0.1714,-0.1763,-0.1805,-0.185,-0.1896,-0.1952,-0.1975,-0.1975,-0.1974,-0.1976,-0.1974,-0.1996,-0.1996,-0.1995,0,0]},{"header":{"parameterUnit":"m.s-1","parameterCategory":1,"la1":30.2992,"la2":30.254,"lo1":-89.0895,"lo2":-89.0443,"dy":0.0025,"dx":0.0025,"nx":19,"ny":19,"refTime":"2026-05-22T21:00:00:Z","depth":0,"parameterNumber":3,"parameterNumberName":"V-component_of_WINDS"},"data":[0,0,0,1.6562,1.6562,1.656,1.656,1.6554,1.6554,0,0,0,0,0,0,0,0,0,0,0,1.6561,1.6561,1.6562,1.6562,1.656,1.656,1.6554,1.6554,0,0,0,0,0,0,0,0,0,0,0,1.6561,1.6561,1.6561,1.6562,1.656,1.656,1.6554,1.6557,0,0,0,0,0,0,0,0,0,0,1.6559,1.6558,1.6561,1.6561,1.6562,1.656,1.656,1.6557,1.6557,1.6554,0,1.6552,0,1.6553,1.6553,1.6553,0,0,0,1.6563,1.6558,1.6558,1.6561,1.6562,1.656,1.6561,1.6557,1.6556,1.6554,1.6552,1.6552,1.6553,1.6553,1.6553,1.6537,1.6537,0,0,1.6563,1.656,1.6559,1.6558,1.6559,1.6561,1.6561,1.6557,1.6554,1.6552,1.6551,1.6553,1.6553,1.6553,1.6537,1.6537,0,0,0,1.6563,1.656,1.6561,1.6558,1.6558,1.6561,1.6561,1.6554,1.6555,1.6551,1.6553,1.6553,1.6553,1.6537,1.6537,1.6529,0,0,0,1.6563,1.656,1.6561,1.6559,1.6558,1.6556,1.6559,1.6555,1.6555,1.6553,1.6553,1.6553,1.6537,1.6537,1.6529,1.6525,0,0,0,1.6562,1.656,1.6559,1.6559,1.6558,1.6556,1.6557,1.6555,1.6555,1.6553,1.6553,1.6538,1.6537,1.653,1.6526,1.652,0,0,0,1.656,1.6551,1.6559,1.655,1.6558,1.6551,1.6557,1.6552,1.6549,1.6553,1.6537,1.6537,1.653,1.6526,1.6521,1.6515,1.6513,0,0,1.6547,1.655,1.6545,1.6551,1.6543,1.6552,1.6542,1.6542,1.6544,1.6539,1.6539,1.6529,1.6526,1.6521,1.6499,1.6497,0,0,0,1.654,1.6536,1.6534,1.6532,1.6532,1.6532,1.6534,1.6534,1.653,1.6541,1.6526,1.6524,1.6521,1.6518,1.6516,1.6514,1.6536,1.6536,1.6536,1.6517,1.6521,1.6513,1.6517,1.6514,1.6517,1.6515,1.6516,1.652,1.6516,1.6515,1.6501,1.6498,1.6497,1.6494,1.6512,1.6512,1.6512,1.6512,1.6499,1.6495,1.6501,1.6495,1.6499,1.6494,1.6497,1.65,1.6496,1.6502,1.65,1.6506,1.6494,1.6492,1.6511,1.6511,1.6511,1.6511,1.6511,1.6485,1.6484,1.6484,1.6482,1.6479,1.6483,1.6479,1.6483,1.6486,1.6484,1.6483,1.6483,1.6484,1.6483,1.6483,1.6483,1.6483,1.6483,1.6483,1.647,1.6471,1.6468,1.6468,1.6467,1.6466,1.6469,1.6469,1.6469,1.6472,1.6472,1.6476,1.6492,1.6496,1.6482,1.6482,1.6482,1.6483,1.6483,1.6451,1.6456,1.645,1.645,1.645,1.6448,1.6453,1.6451,1.6451,1.6449,1.6454,1.6466,1.6468,1.6469,1.6473,1.6453,1.6453,1.6453,1.6453,1.6439,1.6441,1.6436,1.6435,1.6434,1.6438,1.6432,1.6434,1.6437,1.6438,1.6441,1.6446,1.6447,1.6449,1.6451,1.6454,1.643,1.643,1.643,1.6427,1.6429,1.6423,1.6427,1.6427,1.6428,1.6422,1.6421,1.6425,1.6429,1.6438,1.6439,1.6447,1.6449,1.6453,1.6456,1.6462,0,0]}]]